Imperial, NE

2:21 AM MDT on July 28, 2017 (GMT -0600)
Imperial Municipal

Weather History for KIML - July, 2014

Change the Weather History Date:

Monday, July 28, 2014

  Actual Average Record
Temperature  
Mean Temperature 73 °F 77 °F  
Max Temperature 90 °F 91 °F 107 °F (1931)
Min Temperature 56 °F 63 °F 51 °F (1969)
Degree Days  
Heating Degree Days 0 0  
Month to date heating degree days 11 0  
Since 1 June heating degree days 40 34  
Cooling Degree Days 8 12  
Month to date cooling degree days 290 320  
Year to date cooling degree days 518 548  
Since 1 June cooling degree days 457 504  
Growing Degree Days 22 (Base 50)    
Moisture  
Dew Point 55 °F    
Average Humidity 58    
Maximum Humidity 86    
Minimum Humidity 29    
Precipitation  
Precipitation 0.00 in 0.09 in 1.25 in (1942)
Sea Level Pressure  
Sea Level Pressure 30.20 in    
Wind  
Wind Speed 10 mph (SE)    
Max Wind Speed 20 mph    
Max Gust Speed 31 mph    
Visibility 10 miles    
Events      
T = Trace of Precipitation, MM = Missing Value Source: NWS Daily Summary

Daily Weather History Graph

Daily Weather History Graph

Search for Another Location

Airport or City:

Trip Planner

Search our weather history database for the weather conditions in past years. The results will help you decide how hot, cold, wet, or windy it might be!

Date:

Astronomy

Jul. 28, 2014 Rise Set
Actual Time 5:39 AM MDT 8:05 PM MDT
Civil Twilight 5:08 AM MDT 8:36 PM MDT
Nautical Twilight 4:30 AM MDT 9:14 PM MDT
Astronomical Twilight 3:47 AM MDT 9:57 PM MDT
Moon 7:23 AM MDT 8:47 PM MDT
Length of Visible Light 15h 27m
Length of Day
14h 25m
Waxing Crescent, 3% of the Moon is Illuminated
Jul 28
Waxing Crescent
Aug 3
First Quarter
Aug 10
Full
Aug 17
Last Quarter
Aug 25
New

Hourly Weather History & Observations

Time (MDT) Temp. Heat Index Dew Point Humidity Pressure Visibility Wind Dir Wind Speed Gust Speed Precip Events Conditions
12:53 AM 64.0 °F - 51.1 °F 63% 30.23 in 10.0 mi ESE 4.6 mph - N/A   Clear
1:53 AM 61.0 °F - 51.1 °F 70% 30.24 in 10.0 mi Calm Calm - N/A   Clear
2:53 AM 60.1 °F - 51.1 °F 72% 30.23 in 10.0 mi ENE 6.9 mph - N/A   Clear
3:53 AM 57.0 °F - 50.0 °F 77% 30.24 in 10.0 mi Calm Calm - N/A   Clear
4:53 AM 57.0 °F - 50.0 °F 77% 30.25 in 10.0 mi ESE 3.5 mph - N/A   Clear
5:53 AM 55.9 °F - 51.1 °F 84% 30.25 in 10.0 mi ESE 4.6 mph - N/A   Clear
6:53 AM 61.0 °F - 55.0 °F 81% 30.24 in 10.0 mi ESE 8.1 mph - N/A   Clear
7:53 AM 66.2 °F - 55.4 °F 68% 30.34 in 10.0 mi ESE 12.7 mph - N/A   Clear
8:53 AM 69.1 °F - 57.0 °F 65% 30.27 in 9.0 mi ESE 16.1 mph - N/A   Clear
9:53 AM 73.9 °F - 55.9 °F 53% 30.27 in 10.0 mi ESE 18.4 mph - N/A   Scattered Clouds
10:53 AM 79.0 °F - 55.9 °F 45% 30.24 in 10.0 mi SE 18.4 mph 25.3 mph N/A   Clear
11:53 AM 82.4 °F 81.7 °F 55.4 °F 39% 30.31 in 10.0 mi SSE 16.1 mph - N/A   Clear
12:53 PM 84.2 °F 83.0 °F 55.4 °F 37% 30.28 in 10.0 mi SE 12.7 mph 19.6 mph N/A   Clear
1:53 PM 87.1 °F 85.3 °F 55.0 °F 33% 30.17 in 10.0 mi SSE 8.1 mph 31.1 mph N/A   Clear
2:53 PM 89.1 °F 87.3 °F 55.9 °F 32% 30.15 in 10.0 mi East 10.4 mph - N/A   Scattered Clouds
3:53 PM 84.9 °F 84.2 °F 57.9 °F 40% 30.14 in 10.0 mi ESE 9.2 mph - N/A   Mostly Cloudy
4:53 PM 89.1 °F 86.9 °F 54.0 °F 30% 30.12 in 10.0 mi SE 9.2 mph - N/A   Overcast
5:53 PM 87.1 °F 85.1 °F 54.0 °F 32% 30.11 in 10.0 mi ESE 9.2 mph - N/A   Clear
6:53 PM 84.9 °F 83.6 °F 55.0 °F 36% 30.10 in 10.0 mi SE 8.1 mph - N/A   Mostly Cloudy
7:53 PM 82.0 °F - 52.0 °F 35% 30.10 in 10.0 mi South 8.1 mph - N/A   Mostly Cloudy
8:53 PM 75.0 °F - 57.0 °F 53% 30.14 in 10.0 mi ESE 10.4 mph - N/A   Clear
9:53 PM 71.1 °F - 57.0 °F 61% 30.15 in 10.0 mi ESE 13.8 mph - N/A   Clear
10:53 PM 68.0 °F - 57.9 °F 70% 30.14 in 10.0 mi ESE 11.5 mph - N/A   Clear
11:53 PM 66.0 °F - 57.9 °F 75% 30.14 in 10.0 mi SE 11.5 mph - N/A   Clear